Theta_e
341 342 341 342 343 344 342 339 330 325 324 327 327 332 334 335 336 333 333 337 337 336 334 334 335 336 338 338 339 339 340 341 339 338 337 336 334 333
339 338 339 341 341 342 341 339 338 330 323 327 325 329 332 333 335 331 332 334 334 333 332 332 333 333 334 335 336 335 334 334 334 333 332 332 331 330
337 337 337 339 339 339 341 340 337 332 323 324 326 327 328 329 329 329 328 329 331 332 331 330 330 330 331 332 332 332 332 332 331 330 330 329 328 328
336 336 337 342 338 340 339 337 337 330 325 321 323 322 325 326 327 326 327 327 328 330 329 328 327 326 326 327 327 327 326 327 327 327 327 327 327 325
334 335 335 338 336 337 336 335 332 329 327 323 320 320 322 325 325 326 325 323 326 329 327 326 325 324 323 322 322 321 320 320 321 321 322 323 324 324
334 333 331 334 334 335 335 332 330 326 323 322 320 319 320 322 323 323 322 321 320 324 325 322 324 325 323 322 321 320 317 316 315 316 316 316 316 319
333 329 326 329 332 333 335 331 327 324 322 321 319 318 318 319 320 322 321 321 319 319 316 315 315 315 317 321 322 322 317 316 314 313 312 311 311 313
330 327 327 330 329 329 330 333 331 325 321 319 319 318 318 319 321 320 320 317 313 321 316 316 315 312 314 313 320 319 317 315 314 313 311 310 310 311
329 331 329 332 328 326 327 328 329 331 329 324 319 318 318 320 321 320 318 317 315 319 318 313 315 312 313 316 319 317 315 314 313 312 311 310 310 309
331 329 328 329 330 326 325 326 325 326 331 333 327 321 321 321 322 322 320 319 321 323 322 313 315 313 312 313 319 316 314 313 312 311 310 309 307 306
331 330 329 327 323 323 330 326 325 323 321 323 326 324 321 320 322 320 317 317 315 318 323 318 317 313 310 308 314 316 313 311 311 311 310 308 305 305
329 329 329 325 318 320 328 327 323 323 322 321 322 322 323 322 321 321 319 316 317 318 322 320 318 315 309 309 307 309 308 309 308 308 307 306 304 299
329 328 324 318 314 315 320 326 324 324 323 322 322 323 325 323 324 325 324 322 320 320 326 323 321 317 312 309 305 305 305 303 304 305 304 303 302 301
329 330 328 313 310 310 314 315 314 317 323 323 321 321 321 322 322 323 324 325 325 323 326 326 321 320 315 312 309 304 304 303 303 302 302 303 303 303
327 325 314 309 307 309 311 311 310 312 313 313 315 321 324 326 324 321 321 321 322 326 328 327 326 323 321 319 314 306 305 305 305 302 302 301 301 302
321 314 313 312 311 314 311 307 307 310 314 312 313 317 318 322 323 325 322 322 320 321 325 327 326 323 317 318 317 315 312 309 307 305 304 304 304 303
324 324 318 318 318 319 316 313 310 310 308 310 314 315 313 313 319 327 325 322 320 319 320 320 327 326 323 318 314 315 313 313 313 311 307 305 306 305
324 325 325 325 324 323 321 318 319 319 315 316 315 316 314 315 316 316 316 314 316 311 311 311 315 314 316 318 324 318 315 313 315 315 311 308 308 310
323 322 321 322 321 321 321 321 321 323 322 321 318 316 316 317 316 316 315 315 313 312 310 313 313 313 311 309 313 317 316 313 308 308 315 312 311 313
318 321 319 321 321 321 321 321 321 321 319 318 317 317 317 316 315 315 315 313 313 312 311 312 311 311 310 310 310 313 308 314 312 311 311 315 317 316
320 322 321 319 320 320 319 317 316 315 314 314 314 314 314 313 312 312 312 307 309 310 309 310 313 313 314 314 310 311 314 308 312 312 310 308 306 307
324 322 319 318 317 316 314 313 312 309 311 311 310 311 311 311 309 308 307 307 306 306 307 309 311 311 310 310 308 309 310 312 309 310 310 310 308 305
321 320 320 319 317 314 312 311 310 310 310 309 309 309 309 308 308 310 309 310 311 310 310 309 308 308 308 308 308 309 309 309 310 310 311 309 308 308
Wind_Speed
4 5 4 3 2 4 4 4 5 4 2 3 2 2 2 3 6 5 5 10 11 10 10 10 10 10 8 9 8 8 11 13 17 16 16 14 14 14
2 2 2 3 3 3 3 3 4 4 4 2 1 2 3 3 7 5 6 9 11 9 9 9 11 12 11 13 15 19 19 18 17 17 15 14 13 14
1 1 2 2 3 3 4 4 4 4 5 2 2 2 2 5 4 4 5 5 5 10 9 10 10 11 12 14 16 18 18 18 17 17 16 14 13 13
3 2 1 2 2 3 3 4 5 5 5 6 2 2 3 3 4 6 5 5 4 9 10 10 10 11 9 11 12 14 14 14 14 15 14 14 13 13
3 3 4 5 4 3 4 6 6 5 5 6 4 2 2 2 3 3 4 5 4 9 9 9 10 10 10 9 9 11 12 12 12 12 12 11 11 12
4 5 4 4 4 4 5 5 5 6 7 6 4 3 2 2 2 4 4 2 3 4 6 6 7 10 10 9 9 9 10 11 11 10 11 10 10 10
6 5 4 3 5 4 5 7 7 5 6 6 4 3 3 3 5 3 3 3 2 3 3 2 3 2 3 6 8 10 9 9 9 10 10 10 9 9
6 6 6 5 4 6 7 6 8 9 6 5 4 6 5 4 4 5 4 3 3 3 4 4 4 4 4 4 9 10 10 10 9 9 9 9 10 10
6 7 6 5 6 5 6 6 6 6 9 6 6 5 6 7 6 7 5 5 4 4 5 3 4 4 4 5 13 14 13 12 12 11 10 10 10 10
6 6 7 7 8 7 7 6 5 4 4 3 5 6 6 9 11 7 5 3 2 1 8 4 5 4 5 4 15 15 14 14 13 12 11 11 10 10
3 5 6 7 8 9 6 6 5 3 4 8 6 9 9 12 8 5 5 6 3 3 6 4 4 3 3 3 6 15 14 13 14 14 13 12 11 11
5 4 10 8 8 7 6 6 6 5 6 3 3 5 7 9 12 8 5 7 3 2 5 7 4 4 2 3 4 4 5 12 14 13 14 14 13 5
5 4 4 12 10 9 7 5 6 5 6 5 4 3 5 8 8 8 6 6 5 5 4 6 4 3 3 3 3 4 6 4 5 7 13 14 15 13
4 4 6 12 11 9 7 8 7 5 4 4 4 4 4 5 6 7 8 7 7 6 3 5 2 5 5 4 4 3 5 6 6 6 7 8 13 16
1 2 6 8 7 4 3 7 6 3 3 2 3 4 6 7 5 4 5 6 5 4 6 4 4 4 4 5 5 4 5 7 8 9 7 9 10 8
4 2 6 7 7 5 4 3 3 3 3 3 3 2 1 3 5 6 6 6 5 6 7 10 8 7 4 5 5 3 6 6 9 9 11 9 9 10
8 3 1 2 3 4 3 4 3 4 3 3 3 3 2 2 3 6 6 5 6 5 5 5 9 10 8 7 4 5 5 5 7 9 8 10 10 12
3 3 4 5 5 4 4 3 3 5 4 3 3 2 2 1 1 1 2 1 5 3 3 3 3 2 1 4 10 4 3 5 5 10 10 9 10 10
4 4 2 2 2 2 2 2 2 3 1 1 1 1 2 1 2 1 1 1 1 1 2 3 3 2 5 8 3 13 11 6 1 2 7 9 10 11
1 4 3 3 2 2 2 1 1 0 2 3 2 2 2 1 1 1 1 2 3 2 2 1 1 2 2 3 4 5 15 7 6 9 9 7 10 12
3 5 4 4 4 3 2 3 3 3 2 1 1 1 0 0 1 2 2 3 3 2 5 5 5 8 4 3 4 6 7 13 9 9 7 7 7 5
5 6 5 5 4 4 4 3 3 2 2 1 2 2 2 1 1 2 2 2 3 4 5 4 3 3 3 5 9 8 6 5 8 18 15 12 7 9
5 5 4 5 4 4 4 4 3 2 1 2 2 2 2 1 2 2 3 3 3 4 4 5 3 3 5 7 9 7 10 10 9 9 6 12 14 17
Wind_Direction
212 218 226 253 256 223 186 170 148 164 148 186 153 14 71 93 105 84 81 88 89 89 90 87 89 82 101 129 120 100 105 114 112 111 109 111 117 113
199 246 194 198 238 234 212 194 167 147 143 162 148 143 103 100 112 97 89 88 85 85 93 100 94 90 90 105 113 112 109 106 106 105 106 110 115 118
144 141 287 256 250 236 208 188 173 131 127 113 119 83 92 113 93 83 84 72 82 90 83 84 86 92 95 100 106 107 112 116 123 123 121 124 124 127
128 102 72 341 348 291 229 185 140 128 127 147 121 122 94 125 128 125 124 104 92 103 100 98 96 95 93 104 114 120 126 127 127 128 132 134 134 137
121 78 41 37 21 34 68 92 104 106 114 146 135 127 117 140 133 129 131 110 118 119 111 110 104 103 102 102 112 119 127 135 137 137 138 138 140 141
95 95 84 98 92 94 106 111 112 109 116 129 122 120 118 148 136 142 140 128 142 148 125 127 125 125 123 127 130 130 135 141 141 139 139 138 137 140
138 121 120 139 116 146 137 139 130 127 133 137 133 128 150 166 178 163 148 144 168 154 135 157 131 116 147 148 156 149 141 142 142 143 144 141 139 138
160 137 140 130 120 90 89 119 156 154 154 140 161 174 176 163 155 167 153 142 196 174 145 192 161 189 182 179 176 163 156 152 150 148 148 149 146 144
162 155 173 160 157 143 130 118 106 141 173 155 159 179 168 175 165 177 176 175 179 180 150 192 180 194 189 194 186 176 168 166 166 165 165 163 162 162
179 157 146 164 174 159 159 160 166 149 142 148 170 178 183 175 185 184 172 163 307 257 182 174 174 202 174 196 191 186 179 175 175 175 177 176 175 176
174 163 147 161 170 168 171 168 158 143 82 108 125 167 164 175 172 146 175 176 213 226 191 158 173 148 146 186 190 189 185 183 182 182 182 183 183 183
209 187 155 165 181 168 143 169 172 191 152 133 107 96 159 176 173 192 184 192 177 199 210 199 160 136 172 201 177 180 190 198 190 189 191 189 184 171
199 200 199 170 178 180 159 145 176 152 174 167 173 165 160 166 186 202 205 206 205 228 228 175 176 173 150 149 190 182 188 190 197 203 200 198 191 185
207 205 198 180 183 177 165 162 156 122 145 178 173 184 182 194 206 208 209 205 219 228 265 189 201 180 178 141 185 164 198 200 190 209 201 202 211 206
278 227 181 165 144 147 190 173 161 168 185 190 209 214 205 213 172 186 206 213 220 234 243 234 213 216 191 218 176 178 148 208 200 206 196 201 202 200
334 58 155 157 163 171 181 215 207 206 214 217 215 240 255 178 196 189 193 202 207 237 238 227 218 203 213 219 192 178 198 187 195 206 212 214 208 209
161 205 203 203 211 225 211 205 213 224 239 223 255 261 194 201 246 203 201 183 206 200 220 233 225 216 209 181 199 192 190 210 191 202 198 217 215 211
119 164 185 187 190 197 197 216 223 224 227 229 235 256 262 292 261 18 123 198 228 243 228 228 192 182 210 263 205 206 225 212 203 199 194 210 223 215
138 148 171 180 201 206 221 218 231 236 179 95 61 299 282 139 97 23 10 59 295 7 347 359 5 246 228 235 255 216 232 218 161 232 206 203 221 224
111 133 169 163 189 214 195 215 252 306 79 61 27 342 313 334 291 273 241 198 215 219 258 259 237 86 301 297 319 278 218 208 183 234 239 222 226 242
142 120 120 117 107 102 102 95 91 91 79 67 66 102 322 164 271 291 283 258 250 222 265 260 248 182 216 207 247 256 275 222 242 249 262 249 244 225
135 128 128 128 134 141 124 106 89 97 127 126 74 58 20 16 308 302 294 275 261 260 272 282 272 243 234 237 250 250 251 266 214 234 247 231 260 268
90 109 125 124 127 125 126 129 140 151 150 137 148 185 224 237 238 249 256 249 249 263 256 275 248 221 238 249 255 254 254 260 262 274 259 237 255 254